<?xml version="1.0" encoding="utf-8"?>
<gpx xmlns:xsi="http://www.w3.org/2001/XMLSchema-instance" xmlns:xsd="http://www.w3.org/2001/XMLSchema" version="1.1" creator="Shapelink.com" xmlns="http://www.topografix.com/GPX/1/1" xmlns:gpxtpx="http://www.garmin.com/xmlschemas/TrackPointExtension/v1">
  <metadata>
    <name>Löpning 5.67 km, 2018-08-11</name>
    <desc></desc>
    <author><name>Veronica Dahlgren</name></author> 
    <time>1970-01-01T01:00:00Z</time>
  </metadata>
  <trk>
    <name>Löpning 5.67 km, 2018-08-11</name>
    <trkseg>
      <trkpt lat="61.030612" lon="13.339509">
        <ele>354</ele>
        <time>1970-01-01T01:00:00Z</time>
      </trkpt>
      <trkpt lat="61.030531" lon="13.33952">
        <ele>354</ele>
        <time>1970-01-01T01:00:00Z</time>
      </trkpt>
      <trkpt lat="61.030427" lon="13.339535">
        <ele>354</ele>
        <time>1970-01-01T01:00:00Z</time>
      </trkpt>
      <trkpt lat="61.030319" lon="13.339524">
        <ele>354</ele>
        <time>1970-01-01T01:00:00Z</time>
      </trkpt>
      <trkpt lat="61.030234" lon="13.339514">
        <ele>354</ele>
        <time>1970-01-01T01:00:00Z</time>
      </trkpt>
      <trkpt lat="61.030142" lon="13.339521">
        <ele>354</ele>
        <time>1970-01-01T01:00:00Z</time>
      </trkpt>
      <trkpt lat="61.030047" lon="13.339529">
        <ele>354</ele>
        <time>1970-01-01T01:00:00Z</time>
      </trkpt>
      <trkpt lat="61.029953" lon="13.339533">
        <ele>354</ele>
        <time>1970-01-01T01:00:00Z</time>
      </trkpt>
      <trkpt lat="61.029857" lon="13.339545">
        <ele>354</ele>
        <time>1970-01-01T01:00:00Z</time>
      </trkpt>
      <trkpt lat="61.029761" lon="13.339542">
        <ele>354</ele>
        <time>1970-01-01T01:00:00Z</time>
      </trkpt>
      <trkpt lat="61.029674" lon="13.339543">
        <ele>354</ele>
        <time>1970-01-01T01:00:00Z</time>
      </trkpt>
      <trkpt lat="61.02958" lon="13.339545">
        <ele>354</ele>
        <time>1970-01-01T01:00:00Z</time>
      </trkpt>
      <trkpt lat="61.02949" lon="13.339549">
        <ele>354</ele>
        <time>1970-01-01T01:00:00Z</time>
      </trkpt>
      <trkpt lat="61.029404" lon="13.339553">
        <ele>354</ele>
        <time>1970-01-01T01:00:00Z</time>
      </trkpt>
      <trkpt lat="61.029323" lon="13.339544">
        <ele>354</ele>
        <time>1970-01-01T01:00:00Z</time>
      </trkpt>
      <trkpt lat="61.029226" lon="13.339554">
        <ele>354</ele>
        <time>1970-01-01T01:00:00Z</time>
      </trkpt>
      <trkpt lat="61.029142" lon="13.339558">
        <ele>354</ele>
        <time>1970-01-01T01:00:00Z</time>
      </trkpt>
      <trkpt lat="61.029054" lon="13.33955">
        <ele>354</ele>
        <time>1970-01-01T01:00:00Z</time>
      </trkpt>
      <trkpt lat="61.028973" lon="13.33955">
        <ele>354</ele>
        <time>1970-01-01T01:00:00Z</time>
      </trkpt>
      <trkpt lat="61.028891" lon="13.339548">
        <ele>354</ele>
        <time>1970-01-01T01:00:00Z</time>
      </trkpt>
      <trkpt lat="61.028808" lon="13.339555">
        <ele>354</ele>
        <time>1970-01-01T01:00:00Z</time>
      </trkpt>
      <trkpt lat="61.028713" lon="13.339559">
        <ele>354</ele>
        <time>1970-01-01T01:00:00Z</time>
      </trkpt>
      <trkpt lat="61.028615" lon="13.339549">
        <ele>354</ele>
        <time>1970-01-01T01:00:00Z</time>
      </trkpt>
      <trkpt lat="61.028521" lon="13.339556">
        <ele>354.091</ele>
        <time>1970-01-01T01:00:00Z</time>
      </trkpt>
      <trkpt lat="61.028424" lon="13.339567">
        <ele>354.182</ele>
        <time>1970-01-01T01:00:00Z</time>
      </trkpt>
      <trkpt lat="61.028343" lon="13.33957">
        <ele>354.273</ele>
        <time>1970-01-01T01:00:00Z</time>
      </trkpt>
      <trkpt lat="61.028257" lon="13.33958">
        <ele>354.364</ele>
        <time>1970-01-01T01:00:00Z</time>
      </trkpt>
      <trkpt lat="61.028175" lon="13.33958">
        <ele>354.364</ele>
        <time>1970-01-01T01:00:00Z</time>
      </trkpt>
      <trkpt lat="61.02808" lon="13.339583">
        <ele>354.364</ele>
        <time>1970-01-01T01:00:00Z</time>
      </trkpt>
      <trkpt lat="61.027994" lon="13.339596">
        <ele>354.364</ele>
        <time>1970-01-01T01:00:00Z</time>
      </trkpt>
      <trkpt lat="61.027909" lon="13.3396">
        <ele>354.364</ele>
        <time>1970-01-01T01:00:00Z</time>
      </trkpt>
      <trkpt lat="61.027826" lon="13.339605">
        <ele>354.364</ele>
        <time>1970-01-01T01:00:00Z</time>
      </trkpt>
      <trkpt lat="61.027732" lon="13.33958">
        <ele>354.364</ele>
        <time>1970-01-01T01:00:00Z</time>
      </trkpt>
      <trkpt lat="61.027645" lon="13.339562">
        <ele>354.364</ele>
        <time>1970-01-01T01:00:00Z</time>
      </trkpt>
      <trkpt lat="61.027548" lon="13.339559">
        <ele>354.273</ele>
        <time>1970-01-01T01:00:00Z</time>
      </trkpt>
      <trkpt lat="61.027456" lon="13.339561">
        <ele>354.273</ele>
        <time>1970-01-01T01:00:00Z</time>
      </trkpt>
      <trkpt lat="61.027372" lon="13.339551">
        <ele>354.182</ele>
        <time>1970-01-01T01:00:00Z</time>
      </trkpt>
      <trkpt lat="61.02728" lon="13.339542">
        <ele>354.091</ele>
        <time>1970-01-01T01:00:00Z</time>
      </trkpt>
      <trkpt lat="61.02719" lon="13.339552">
        <ele>354.091</ele>
        <time>1970-01-01T01:00:00Z</time>
      </trkpt>
      <trkpt lat="61.027091" lon="13.339573">
        <ele>354.091</ele>
        <time>1970-01-01T01:00:00Z</time>
      </trkpt>
      <trkpt lat="61.027006" lon="13.339585">
        <ele>354.091</ele>
        <time>1970-01-01T01:00:00Z</time>
      </trkpt>
      <trkpt lat="61.026917" lon="13.339579">
        <ele>354.091</ele>
        <time>1970-01-01T01:00:00Z</time>
      </trkpt>
      <trkpt lat="61.026824" lon="13.33955">
        <ele>354.091</ele>
        <time>1970-01-01T01:00:00Z</time>
      </trkpt>
      <trkpt lat="61.026738" lon="13.339545">
        <ele>354.091</ele>
        <time>1970-01-01T01:00:00Z</time>
      </trkpt>
      <trkpt lat="61.02665" lon="13.339542">
        <ele>354.091</ele>
        <time>1970-01-01T01:00:00Z</time>
      </trkpt>
      <trkpt lat="61.02657" lon="13.339582">
        <ele>354.091</ele>
        <time>1970-01-01T01:00:00Z</time>
      </trkpt>
      <trkpt lat="61.026475" lon="13.339579">
        <ele>354</ele>
        <time>1970-01-01T01:00:00Z</time>
      </trkpt>
      <trkpt lat="61.026384" lon="13.33956">
        <ele>354</ele>
        <time>1970-01-01T01:00:00Z</time>
      </trkpt>
      <trkpt lat="61.026301" lon="13.339537">
        <ele>354</ele>
        <time>1970-01-01T01:00:00Z</time>
      </trkpt>
      <trkpt lat="61.026214" lon="13.339539">
        <ele>354</ele>
        <time>1970-01-01T01:00:00Z</time>
      </trkpt>
      <trkpt lat="61.02613" lon="13.339552">
        <ele>354</ele>
        <time>1970-01-01T01:00:00Z</time>
      </trkpt>
      <trkpt lat="61.026025" lon="13.339546">
        <ele>354</ele>
        <time>1970-01-01T01:00:00Z</time>
      </trkpt>
      <trkpt lat="61.025941" lon="13.339549">
        <ele>353.909</ele>
        <time>1970-01-01T01:00:00Z</time>
      </trkpt>
      <trkpt lat="61.025847" lon="13.339557">
        <ele>353.818</ele>
        <time>1970-01-01T01:00:00Z</time>
      </trkpt>
      <trkpt lat="61.025765" lon="13.339541">
        <ele>353.727</ele>
        <time>1970-01-01T01:00:00Z</time>
      </trkpt>
      <trkpt lat="61.025681" lon="13.33954">
        <ele>353.636</ele>
        <time>1970-01-01T01:00:00Z</time>
      </trkpt>
      <trkpt lat="61.025589" lon="13.339556">
        <ele>353.545</ele>
        <time>1970-01-01T01:00:00Z</time>
      </trkpt>
      <trkpt lat="61.025488" lon="13.339563">
        <ele>353.455</ele>
        <time>1970-01-01T01:00:00Z</time>
      </trkpt>
      <trkpt lat="61.025402" lon="13.339485">
        <ele>353.364</ele>
        <time>1970-01-01T01:00:00Z</time>
      </trkpt>
      <trkpt lat="61.025312" lon="13.339499">
        <ele>353.273</ele>
        <time>1970-01-01T01:00:00Z</time>
      </trkpt>
      <trkpt lat="61.025217" lon="13.339516">
        <ele>353.091</ele>
        <time>1970-01-01T01:00:00Z</time>
      </trkpt>
      <trkpt lat="61.025112" lon="13.339517">
        <ele>352.909</ele>
        <time>1970-01-01T01:00:00Z</time>
      </trkpt>
      <trkpt lat="61.025027" lon="13.339527">
        <ele>352.727</ele>
        <time>1970-01-01T01:00:00Z</time>
      </trkpt>
      <trkpt lat="61.024944" lon="13.339538">
        <ele>352.636</ele>
        <time>1970-01-01T01:00:00Z</time>
      </trkpt>
      <trkpt lat="61.024843" lon="13.339543">
        <ele>352.545</ele>
        <time>1970-01-01T01:00:00Z</time>
      </trkpt>
      <trkpt lat="61.024748" lon="13.339523">
        <ele>352.455</ele>
        <time>1970-01-01T01:00:00Z</time>
      </trkpt>
      <trkpt lat="61.024661" lon="13.339508">
        <ele>352.273</ele>
        <time>1970-01-01T01:00:00Z</time>
      </trkpt>
      <trkpt lat="61.024569" lon="13.33952">
        <ele>352.091</ele>
        <time>1970-01-01T01:00:00Z</time>
      </trkpt>
      <trkpt lat="61.024484" lon="13.339513">
        <ele>351.909</ele>
        <time>1970-01-01T01:00:00Z</time>
      </trkpt>
      <trkpt lat="61.024398" lon="13.339491">
        <ele>351.727</ele>
        <time>1970-01-01T01:00:00Z</time>
      </trkpt>
      <trkpt lat="61.024316" lon="13.339472">
        <ele>351.545</ele>
        <time>1970-01-01T01:00:00Z</time>
      </trkpt>
      <trkpt lat="61.024217" lon="13.339473">
        <ele>351.455</ele>
        <time>1970-01-01T01:00:00Z</time>
      </trkpt>
      <trkpt lat="61.024134" lon="13.339437">
        <ele>351.364</ele>
        <time>1970-01-01T01:00:00Z</time>
      </trkpt>
      <trkpt lat="61.024049" lon="13.339387">
        <ele>351.273</ele>
        <time>1970-01-01T01:00:00Z</time>
      </trkpt>
      <trkpt lat="61.023951" lon="13.339349">
        <ele>351.182</ele>
        <time>1970-01-01T01:00:00Z</time>
      </trkpt>
      <trkpt lat="61.02386" lon="13.339273">
        <ele>351.091</ele>
        <time>1970-01-01T01:00:00Z</time>
      </trkpt>
      <trkpt lat="61.023723" lon="13.339282">
        <ele>351</ele>
        <time>1970-01-01T01:00:00Z</time>
      </trkpt>
      <trkpt lat="61.023637" lon="13.339249">
        <ele>351</ele>
        <time>1970-01-01T01:00:00Z</time>
      </trkpt>
      <trkpt lat="61.023548" lon="13.339211">
        <ele>351</ele>
        <time>1970-01-01T01:00:00Z</time>
      </trkpt>
      <trkpt lat="61.023463" lon="13.33918">
        <ele>351</ele>
        <time>1970-01-01T01:00:00Z</time>
      </trkpt>
      <trkpt lat="61.023374" lon="13.339185">
        <ele>351</ele>
        <time>1970-01-01T01:00:00Z</time>
      </trkpt>
      <trkpt lat="61.023273" lon="13.339212">
        <ele>351</ele>
        <time>1970-01-01T01:00:00Z</time>
      </trkpt>
      <trkpt lat="61.02319" lon="13.339216">
        <ele>351</ele>
        <time>1970-01-01T01:00:00Z</time>
      </trkpt>
      <trkpt lat="61.023107" lon="13.33922">
        <ele>351</ele>
        <time>1970-01-01T01:00:00Z</time>
      </trkpt>
      <trkpt lat="61.023021" lon="13.33919">
        <ele>351</ele>
        <time>1970-01-01T01:00:00Z</time>
      </trkpt>
      <trkpt lat="61.022937" lon="13.339131">
        <ele>351</ele>
        <time>1970-01-01T01:00:00Z</time>
      </trkpt>
      <trkpt lat="61.022838" lon="13.339118">
        <ele>351</ele>
        <time>1970-01-01T01:00:00Z</time>
      </trkpt>
      <trkpt lat="61.022747" lon="13.339124">
        <ele>351</ele>
        <time>1970-01-01T01:00:00Z</time>
      </trkpt>
      <trkpt lat="61.022657" lon="13.339123">
        <ele>351</ele>
        <time>1970-01-01T01:00:00Z</time>
      </trkpt>
      <trkpt lat="61.022595" lon="13.339008">
        <ele>351</ele>
        <time>1970-01-01T01:00:00Z</time>
      </trkpt>
      <trkpt lat="61.022501" lon="13.338961">
        <ele>351</ele>
        <time>1970-01-01T01:00:00Z</time>
      </trkpt>
      <trkpt lat="61.022422" lon="13.338902">
        <ele>351</ele>
        <time>1970-01-01T01:00:00Z</time>
      </trkpt>
      <trkpt lat="61.02234" lon="13.338922">
        <ele>350.909</ele>
        <time>1970-01-01T01:00:00Z</time>
      </trkpt>
      <trkpt lat="61.02225" lon="13.338888">
        <ele>350.909</ele>
        <time>1970-01-01T01:00:00Z</time>
      </trkpt>
      <trkpt lat="61.022171" lon="13.338839">
        <ele>350.818</ele>
        <time>1970-01-01T01:00:00Z</time>
      </trkpt>
      <trkpt lat="61.022086" lon="13.33881">
        <ele>350.727</ele>
        <time>1970-01-01T01:00:00Z</time>
      </trkpt>
      <trkpt lat="61.021999" lon="13.338783">
        <ele>350.636</ele>
        <time>1970-01-01T01:00:00Z</time>
      </trkpt>
      <trkpt lat="61.021918" lon="13.338733">
        <ele>350.636</ele>
        <time>1970-01-01T01:00:00Z</time>
      </trkpt>
      <trkpt lat="61.021827" lon="13.338752">
        <ele>350.636</ele>
        <time>1970-01-01T01:00:00Z</time>
      </trkpt>
      <trkpt lat="61.021743" lon="13.338685">
        <ele>350.636</ele>
        <time>1970-01-01T01:00:00Z</time>
      </trkpt>
      <trkpt lat="61.02164" lon="13.338624">
        <ele>350.636</ele>
        <time>1970-01-01T01:00:00Z</time>
      </trkpt>
      <trkpt lat="61.021552" lon="13.338599">
        <ele>350.636</ele>
        <time>1970-01-01T01:00:00Z</time>
      </trkpt>
      <trkpt lat="61.021457" lon="13.338542">
        <ele>350.727</ele>
        <time>1970-01-01T01:00:00Z</time>
      </trkpt>
      <trkpt lat="61.021366" lon="13.338526">
        <ele>350.909</ele>
        <time>1970-01-01T01:00:00Z</time>
      </trkpt>
      <trkpt lat="61.021263" lon="13.338485">
        <ele>351</ele>
        <time>1970-01-01T01:00:00Z</time>
      </trkpt>
      <trkpt lat="61.021182" lon="13.338472">
        <ele>351.273</ele>
        <time>1970-01-01T01:00:00Z</time>
      </trkpt>
      <trkpt lat="61.021097" lon="13.338454">
        <ele>351.545</ele>
        <time>1970-01-01T01:00:00Z</time>
      </trkpt>
      <trkpt lat="61.021003" lon="13.338437">
        <ele>351.818</ele>
        <time>1970-01-01T01:00:00Z</time>
      </trkpt>
      <trkpt lat="61.020907" lon="13.338427">
        <ele>352</ele>
        <time>1970-01-01T01:00:00Z</time>
      </trkpt>
      <trkpt lat="61.02081" lon="13.338431">
        <ele>352.182</ele>
        <time>1970-01-01T01:00:00Z</time>
      </trkpt>
      <trkpt lat="61.020711" lon="13.338423">
        <ele>352.364</ele>
        <time>1970-01-01T01:00:00Z</time>
      </trkpt>
      <trkpt lat="61.020624" lon="13.338395">
        <ele>352.545</ele>
        <time>1970-01-01T01:00:00Z</time>
      </trkpt>
      <trkpt lat="61.020538" lon="13.338371">
        <ele>352.818</ele>
        <time>1970-01-01T01:00:00Z</time>
      </trkpt>
      <trkpt lat="61.020461" lon="13.338311">
        <ele>353</ele>
        <time>1970-01-01T01:00:00Z</time>
      </trkpt>
      <trkpt lat="61.020379" lon="13.338274">
        <ele>353.091</ele>
        <time>1970-01-01T01:00:00Z</time>
      </trkpt>
      <trkpt lat="61.020289" lon="13.338244">
        <ele>353.273</ele>
        <time>1970-01-01T01:00:00Z</time>
      </trkpt>
      <trkpt lat="61.020201" lon="13.338161">
        <ele>353.364</ele>
        <time>1970-01-01T01:00:00Z</time>
      </trkpt>
      <trkpt lat="61.020125" lon="13.338093">
        <ele>353.455</ele>
        <time>1970-01-01T01:00:00Z</time>
      </trkpt>
      <trkpt lat="61.020008" lon="13.337925">
        <ele>353.545</ele>
        <time>1970-01-01T01:00:00Z</time>
      </trkpt>
      <trkpt lat="61.019922" lon="13.337858">
        <ele>353.636</ele>
        <time>1970-01-01T01:00:00Z</time>
      </trkpt>
      <trkpt lat="61.019832" lon="13.337816">
        <ele>353.727</ele>
        <time>1970-01-01T01:00:00Z</time>
      </trkpt>
      <trkpt lat="61.019753" lon="13.337767">
        <ele>353.818</ele>
        <time>1970-01-01T01:00:00Z</time>
      </trkpt>
      <trkpt lat="61.019678" lon="13.337679">
        <ele>353.909</ele>
        <time>1970-01-01T01:00:00Z</time>
      </trkpt>
      <trkpt lat="61.019599" lon="13.337631">
        <ele>353.909</ele>
        <time>1970-01-01T01:00:00Z</time>
      </trkpt>
      <trkpt lat="61.019534" lon="13.337526">
        <ele>353.909</ele>
        <time>1970-01-01T01:00:00Z</time>
      </trkpt>
      <trkpt lat="61.019449" lon="13.337435">
        <ele>354</ele>
        <time>1970-01-01T01:00:00Z</time>
      </trkpt>
      <trkpt lat="61.019366" lon="13.33735">
        <ele>354</ele>
        <time>1970-01-01T01:00:00Z</time>
      </trkpt>
      <trkpt lat="61.019291" lon="13.337234">
        <ele>354</ele>
        <time>1970-01-01T01:00:00Z</time>
      </trkpt>
      <trkpt lat="61.019219" lon="13.337154">
        <ele>354</ele>
        <time>1970-01-01T01:00:00Z</time>
      </trkpt>
      <trkpt lat="61.019139" lon="13.337108">
        <ele>354</ele>
        <time>1970-01-01T01:00:00Z</time>
      </trkpt>
      <trkpt lat="61.019049" lon="13.337038">
        <ele>354</ele>
        <time>1970-01-01T01:00:00Z</time>
      </trkpt>
      <trkpt lat="61.01897" lon="13.336986">
        <ele>354</ele>
        <time>1970-01-01T01:00:00Z</time>
      </trkpt>
      <trkpt lat="61.01889" lon="13.336917">
        <ele>354</ele>
        <time>1970-01-01T01:00:00Z</time>
      </trkpt>
      <trkpt lat="61.018801" lon="13.336849">
        <ele>354</ele>
        <time>1970-01-01T01:00:00Z</time>
      </trkpt>
      <trkpt lat="61.018718" lon="13.336747">
        <ele>354</ele>
        <time>1970-01-01T01:00:00Z</time>
      </trkpt>
      <trkpt lat="61.018641" lon="13.336655">
        <ele>354</ele>
        <time>1970-01-01T01:00:00Z</time>
      </trkpt>
      <trkpt lat="61.018562" lon="13.336604">
        <ele>354</ele>
        <time>1970-01-01T01:00:00Z</time>
      </trkpt>
      <trkpt lat="61.018474" lon="13.336522">
        <ele>354.091</ele>
        <time>1970-01-01T01:00:00Z</time>
      </trkpt>
      <trkpt lat="61.018398" lon="13.336461">
        <ele>354.182</ele>
        <time>1970-01-01T01:00:00Z</time>
      </trkpt>
      <trkpt lat="61.018313" lon="13.336383">
        <ele>354.273</ele>
        <time>1970-01-01T01:00:00Z</time>
      </trkpt>
      <trkpt lat="61.018229" lon="13.336314">
        <ele>354.364</ele>
        <time>1970-01-01T01:00:00Z</time>
      </trkpt>
      <trkpt lat="61.018145" lon="13.336239">
        <ele>354.455</ele>
        <time>1970-01-01T01:00:00Z</time>
      </trkpt>
      <trkpt lat="61.018032" lon="13.336232">
        <ele>354.545</ele>
        <time>1970-01-01T01:00:00Z</time>
      </trkpt>
      <trkpt lat="61.01794" lon="13.336153">
        <ele>354.636</ele>
        <time>1970-01-01T01:00:00Z</time>
      </trkpt>
      <trkpt lat="61.017859" lon="13.336103">
        <ele>354.727</ele>
        <time>1970-01-01T01:00:00Z</time>
      </trkpt>
      <trkpt lat="61.017776" lon="13.336041">
        <ele>354.909</ele>
        <time>1970-01-01T01:00:00Z</time>
      </trkpt>
      <trkpt lat="61.017694" lon="13.336016">
        <ele>355.091</ele>
        <time>1970-01-01T01:00:00Z</time>
      </trkpt>
      <trkpt lat="61.017601" lon="13.336014">
        <ele>355.273</ele>
        <time>1970-01-01T01:00:00Z</time>
      </trkpt>
      <trkpt lat="61.017517" lon="13.335939">
        <ele>355.364</ele>
        <time>1970-01-01T01:00:00Z</time>
      </trkpt>
      <trkpt lat="61.017436" lon="13.33587">
        <ele>355.455</ele>
        <time>1970-01-01T01:00:00Z</time>
      </trkpt>
      <trkpt lat="61.017349" lon="13.335837">
        <ele>355.545</ele>
        <time>1970-01-01T01:00:00Z</time>
      </trkpt>
      <trkpt lat="61.017259" lon="13.335805">
        <ele>355.636</ele>
        <time>1970-01-01T01:00:00Z</time>
      </trkpt>
      <trkpt lat="61.017178" lon="13.33578">
        <ele>355.727</ele>
        <time>1970-01-01T01:00:00Z</time>
      </trkpt>
      <trkpt lat="61.017091" lon="13.335747">
        <ele>355.818</ele>
        <time>1970-01-01T01:00:00Z</time>
      </trkpt>
      <trkpt lat="61.017003" lon="13.335721">
        <ele>356</ele>
        <time>1970-01-01T01:00:00Z</time>
      </trkpt>
      <trkpt lat="61.016919" lon="13.335678">
        <ele>356.182</ele>
        <time>1970-01-01T01:00:00Z</time>
      </trkpt>
      <trkpt lat="61.016828" lon="13.335659">
        <ele>356.273</ele>
        <time>1970-01-01T01:00:00Z</time>
      </trkpt>
      <trkpt lat="61.016735" lon="13.335632">
        <ele>356.455</ele>
        <time>1970-01-01T01:00:00Z</time>
      </trkpt>
      <trkpt lat="61.016643" lon="13.335628">
        <ele>356.636</ele>
        <time>1970-01-01T01:00:00Z</time>
      </trkpt>
      <trkpt lat="61.016561" lon="13.335631">
        <ele>356.818</ele>
        <time>1970-01-01T01:00:00Z</time>
      </trkpt>
      <trkpt lat="61.01647" lon="13.335637">
        <ele>357</ele>
        <time>1970-01-01T01:00:00Z</time>
      </trkpt>
      <trkpt lat="61.016377" lon="13.335649">
        <ele>357.273</ele>
        <time>1970-01-01T01:00:00Z</time>
      </trkpt>
      <trkpt lat="61.016294" lon="13.335622">
        <ele>357.545</ele>
        <time>1970-01-01T01:00:00Z</time>
      </trkpt>
      <trkpt lat="61.016209" lon="13.3356">
        <ele>357.818</ele>
        <time>1970-01-01T01:00:00Z</time>
      </trkpt>
      <trkpt lat="61.016126" lon="13.335586">
        <ele>358.091</ele>
        <time>1970-01-01T01:00:00Z</time>
      </trkpt>
      <trkpt lat="61.016037" lon="13.335569">
        <ele>358.273</ele>
        <time>1970-01-01T01:00:00Z</time>
      </trkpt>
      <trkpt lat="61.015935" lon="13.335543">
        <ele>358.455</ele>
        <time>1970-01-01T01:00:00Z</time>
      </trkpt>
      <trkpt lat="61.015848" lon="13.335542">
        <ele>358.636</ele>
        <time>1970-01-01T01:00:00Z</time>
      </trkpt>
      <trkpt lat="61.015764" lon="13.335499">
        <ele>358.818</ele>
        <time>1970-01-01T01:00:00Z</time>
      </trkpt>
      <trkpt lat="61.01568" lon="13.335496">
        <ele>359</ele>
        <time>1970-01-01T01:00:00Z</time>
      </trkpt>
      <trkpt lat="61.015579" lon="13.335485">
        <ele>359.182</ele>
        <time>1970-01-01T01:00:00Z</time>
      </trkpt>
      <trkpt lat="61.01549" lon="13.335476">
        <ele>359.364</ele>
        <time>1970-01-01T01:00:00Z</time>
      </trkpt>
      <trkpt lat="61.0154" lon="13.335462">
        <ele>359.455</ele>
        <time>1970-01-01T01:00:00Z</time>
      </trkpt>
      <trkpt lat="61.015307" lon="13.335464">
        <ele>359.545</ele>
        <time>1970-01-01T01:00:00Z</time>
      </trkpt>
      <trkpt lat="61.015222" lon="13.335475">
        <ele>359.636</ele>
        <time>1970-01-01T01:00:00Z</time>
      </trkpt>
      <trkpt lat="61.015131" lon="13.335456">
        <ele>359.727</ele>
        <time>1970-01-01T01:00:00Z</time>
      </trkpt>
      <trkpt lat="61.015048" lon="13.335451">
        <ele>359.909</ele>
        <time>1970-01-01T01:00:00Z</time>
      </trkpt>
      <trkpt lat="61.014954" lon="13.335436">
        <ele>360.091</ele>
        <time>1970-01-01T01:00:00Z</time>
      </trkpt>
      <trkpt lat="61.014878" lon="13.335354">
        <ele>360.273</ele>
        <time>1970-01-01T01:00:00Z</time>
      </trkpt>
      <trkpt lat="61.014791" lon="13.335353">
        <ele>360.364</ele>
        <time>1970-01-01T01:00:00Z</time>
      </trkpt>
      <trkpt lat="61.014707" lon="13.335365">
        <ele>360.455</ele>
        <time>1970-01-01T01:00:00Z</time>
      </trkpt>
      <trkpt lat="61.0146" lon="13.335377">
        <ele>360.636</ele>
        <time>1970-01-01T01:00:00Z</time>
      </trkpt>
      <trkpt lat="61.014506" lon="13.335386">
        <ele>360.818</ele>
        <time>1970-01-01T01:00:00Z</time>
      </trkpt>
      <trkpt lat="61.014414" lon="13.335402">
        <ele>361</ele>
        <time>1970-01-01T01:00:00Z</time>
      </trkpt>
      <trkpt lat="61.014312" lon="13.335416">
        <ele>361.182</ele>
        <time>1970-01-01T01:00:00Z</time>
      </trkpt>
      <trkpt lat="61.014206" lon="13.335425">
        <ele>361.364</ele>
        <time>1970-01-01T01:00:00Z</time>
      </trkpt>
      <trkpt lat="61.014111" lon="13.335442">
        <ele>361.636</ele>
        <time>1970-01-01T01:00:00Z</time>
      </trkpt>
      <trkpt lat="61.014018" lon="13.335458">
        <ele>361.818</ele>
        <time>1970-01-01T01:00:00Z</time>
      </trkpt>
      <trkpt lat="61.013924" lon="13.335493">
        <ele>362</ele>
        <time>1970-01-01T01:00:00Z</time>
      </trkpt>
      <trkpt lat="61.013825" lon="13.335499">
        <ele>362.182</ele>
        <time>1970-01-01T01:00:00Z</time>
      </trkpt>
      <trkpt lat="61.013736" lon="13.335521">
        <ele>362.455</ele>
        <time>1970-01-01T01:00:00Z</time>
      </trkpt>
      <trkpt lat="61.013651" lon="13.335601">
        <ele>362.727</ele>
        <time>1970-01-01T01:00:00Z</time>
      </trkpt>
      <trkpt lat="61.013505" lon="13.335624">
        <ele>362.909</ele>
        <time>1970-01-01T01:00:00Z</time>
      </trkpt>
      <trkpt lat="61.013424" lon="13.335674">
        <ele>363.091</ele>
        <time>1970-01-01T01:00:00Z</time>
      </trkpt>
      <trkpt lat="61.013333" lon="13.335655">
        <ele>363.273</ele>
        <time>1970-01-01T01:00:00Z</time>
      </trkpt>
      <trkpt lat="61.013249" lon="13.335655">
        <ele>363.545</ele>
        <time>1970-01-01T01:00:00Z</time>
      </trkpt>
      <trkpt lat="61.013166" lon="13.335669">
        <ele>363.818</ele>
        <time>1970-01-01T01:00:00Z</time>
      </trkpt>
      <trkpt lat="61.013088" lon="13.335728">
        <ele>364</ele>
        <time>1970-01-01T01:00:00Z</time>
      </trkpt>
      <trkpt lat="61.013001" lon="13.335754">
        <ele>364.182</ele>
        <time>1970-01-01T01:00:00Z</time>
      </trkpt>
      <trkpt lat="61.012913" lon="13.335745">
        <ele>364.364</ele>
        <time>1970-01-01T01:00:00Z</time>
      </trkpt>
      <trkpt lat="61.012828" lon="13.335772">
        <ele>364.545</ele>
        <time>1970-01-01T01:00:00Z</time>
      </trkpt>
      <trkpt lat="61.012731" lon="13.33574">
        <ele>364.636</ele>
        <time>1970-01-01T01:00:00Z</time>
      </trkpt>
      <trkpt lat="61.012642" lon="13.335717">
        <ele>364.727</ele>
        <time>1970-01-01T01:00:00Z</time>
      </trkpt>
      <trkpt lat="61.012549" lon="13.335709">
        <ele>364.818</ele>
        <time>1970-01-01T01:00:00Z</time>
      </trkpt>
      <trkpt lat="61.01245" lon="13.33571">
        <ele>364.909</ele>
        <time>1970-01-01T01:00:00Z</time>
      </trkpt>
      <trkpt lat="61.012363" lon="13.33571">
        <ele>365</ele>
        <time>1970-01-01T01:00:00Z</time>
      </trkpt>
      <trkpt lat="61.012266" lon="13.335734">
        <ele>365</ele>
        <time>1970-01-01T01:00:00Z</time>
      </trkpt>
      <trkpt lat="61.012182" lon="13.33573">
        <ele>365</ele>
        <time>1970-01-01T01:00:00Z</time>
      </trkpt>
      <trkpt lat="61.012097" lon="13.335789">
        <ele>365</ele>
        <time>1970-01-01T01:00:00Z</time>
      </trkpt>
      <trkpt lat="61.012" lon="13.335797">
        <ele>365</ele>
        <time>1970-01-01T01:00:00Z</time>
      </trkpt>
      <trkpt lat="61.011913" lon="13.335763">
        <ele>365</ele>
        <time>1970-01-01T01:00:00Z</time>
      </trkpt>
      <trkpt lat="61.011818" lon="13.335728">
        <ele>365</ele>
        <time>1970-01-01T01:00:00Z</time>
      </trkpt>
      <trkpt lat="61.011732" lon="13.33572">
        <ele>365</ele>
        <time>1970-01-01T01:00:00Z</time>
      </trkpt>
      <trkpt lat="61.011649" lon="13.335674">
        <ele>365</ele>
        <time>1970-01-01T01:00:00Z</time>
      </trkpt>
      <trkpt lat="61.011568" lon="13.335618">
        <ele>365</ele>
        <time>1970-01-01T01:00:00Z</time>
      </trkpt>
      <trkpt lat="61.011494" lon="13.335549">
        <ele>365</ele>
        <time>1970-01-01T01:00:00Z</time>
      </trkpt>
      <trkpt lat="61.011393" lon="13.335524">
        <ele>365</ele>
        <time>1970-01-01T01:00:00Z</time>
      </trkpt>
      <trkpt lat="61.011309" lon="13.335454">
        <ele>365</ele>
        <time>1970-01-01T01:00:00Z</time>
      </trkpt>
      <trkpt lat="61.011235" lon="13.335367">
        <ele>365</ele>
        <time>1970-01-01T01:00:00Z</time>
      </trkpt>
      <trkpt lat="61.011149" lon="13.335272">
        <ele>364.909</ele>
        <time>1970-01-01T01:00:00Z</time>
      </trkpt>
      <trkpt lat="61.011065" lon="13.335202">
        <ele>364.818</ele>
        <time>1970-01-01T01:00:00Z</time>
      </trkpt>
      <trkpt lat="61.010993" lon="13.335111">
        <ele>364.727</ele>
        <time>1970-01-01T01:00:00Z</time>
      </trkpt>
      <trkpt lat="61.010921" lon="13.335002">
        <ele>364.636</ele>
        <time>1970-01-01T01:00:00Z</time>
      </trkpt>
      <trkpt lat="61.010855" lon="13.334894">
        <ele>364.455</ele>
        <time>1970-01-01T01:00:00Z</time>
      </trkpt>
      <trkpt lat="61.01077" lon="13.334752">
        <ele>364.273</ele>
        <time>1970-01-01T01:00:00Z</time>
      </trkpt>
      <trkpt lat="61.010695" lon="13.334629">
        <ele>364.091</ele>
        <time>1970-01-01T01:00:00Z</time>
      </trkpt>
      <trkpt lat="61.010625" lon="13.334522">
        <ele>363.818</ele>
        <time>1970-01-01T01:00:00Z</time>
      </trkpt>
      <trkpt lat="61.010547" lon="13.334411">
        <ele>363.545</ele>
        <time>1970-01-01T01:00:00Z</time>
      </trkpt>
      <trkpt lat="61.010472" lon="13.334288">
        <ele>363.182</ele>
        <time>1970-01-01T01:00:00Z</time>
      </trkpt>
      <trkpt lat="61.010402" lon="13.334201">
        <ele>362.818</ele>
        <time>1970-01-01T01:00:00Z</time>
      </trkpt>
      <trkpt lat="61.010327" lon="13.334072">
        <ele>362.545</ele>
        <time>1970-01-01T01:00:00Z</time>
      </trkpt>
      <trkpt lat="61.010258" lon="13.333913">
        <ele>362.182</ele>
        <time>1970-01-01T01:00:00Z</time>
      </trkpt>
      <trkpt lat="61.010175" lon="13.333789">
        <ele>361.818</ele>
        <time>1970-01-01T01:00:00Z</time>
      </trkpt>
      <trkpt lat="61.010101" lon="13.3337">
        <ele>361.364</ele>
        <time>1970-01-01T01:00:00Z</time>
      </trkpt>
      <trkpt lat="61.010029" lon="13.333593">
        <ele>361</ele>
        <time>1970-01-01T01:00:00Z</time>
      </trkpt>
      <trkpt lat="61.009951" lon="13.33349">
        <ele>360.545</ele>
        <time>1970-01-01T01:00:00Z</time>
      </trkpt>
      <trkpt lat="61.009892" lon="13.333354">
        <ele>360.091</ele>
        <time>1970-01-01T01:00:00Z</time>
      </trkpt>
      <trkpt lat="61.00984" lon="13.333218">
        <ele>359.636</ele>
        <time>1970-01-01T01:00:00Z</time>
      </trkpt>
      <trkpt lat="61.009772" lon="13.333072">
        <ele>359.182</ele>
        <time>1970-01-01T01:00:00Z</time>
      </trkpt>
      <trkpt lat="61.009701" lon="13.33296">
        <ele>358.727</ele>
        <time>1970-01-01T01:00:00Z</time>
      </trkpt>
      <trkpt lat="61.009638" lon="13.332845">
        <ele>358.273</ele>
        <time>1970-01-01T01:00:00Z</time>
      </trkpt>
      <trkpt lat="61.009573" lon="13.332686">
        <ele>357.818</ele>
        <time>1970-01-01T01:00:00Z</time>
      </trkpt>
      <trkpt lat="61.009511" lon="13.33255">
        <ele>357.364</ele>
        <time>1970-01-01T01:00:00Z</time>
      </trkpt>
      <trkpt lat="61.00944" lon="13.332399">
        <ele>356.909</ele>
        <time>1970-01-01T01:00:00Z</time>
      </trkpt>
      <trkpt lat="61.009371" lon="13.332293">
        <ele>356.545</ele>
        <time>1970-01-01T01:00:00Z</time>
      </trkpt>
      <trkpt lat="61.009301" lon="13.332195">
        <ele>356.091</ele>
        <time>1970-01-01T01:00:00Z</time>
      </trkpt>
      <trkpt lat="61.009213" lon="13.332111">
        <ele>355.727</ele>
        <time>1970-01-01T01:00:00Z</time>
      </trkpt>
      <trkpt lat="61.009146" lon="13.33199">
        <ele>355.364</ele>
        <time>1970-01-01T01:00:00Z</time>
      </trkpt>
      <trkpt lat="61.009071" lon="13.331901">
        <ele>355.091</ele>
        <time>1970-01-01T01:00:00Z</time>
      </trkpt>
      <trkpt lat="61.008992" lon="13.331813">
        <ele>354.818</ele>
        <time>1970-01-01T01:00:00Z</time>
      </trkpt>
      <trkpt lat="61.008917" lon="13.331727">
        <ele>354.636</ele>
        <time>1970-01-01T01:00:00Z</time>
      </trkpt>
      <trkpt lat="61.008849" lon="13.331629">
        <ele>354.364</ele>
        <time>1970-01-01T01:00:00Z</time>
      </trkpt>
      <trkpt lat="61.008766" lon="13.331572">
        <ele>354.091</ele>
        <time>1970-01-01T01:00:00Z</time>
      </trkpt>
      <trkpt lat="61.008678" lon="13.331487">
        <ele>353.909</ele>
        <time>1970-01-01T01:00:00Z</time>
      </trkpt>
      <trkpt lat="61.00859" lon="13.331442">
        <ele>353.727</ele>
        <time>1970-01-01T01:00:00Z</time>
      </trkpt>
      <trkpt lat="61.008505" lon="13.331382">
        <ele>353.455</ele>
        <time>1970-01-01T01:00:00Z</time>
      </trkpt>
      <trkpt lat="61.008427" lon="13.331326">
        <ele>353.273</ele>
        <time>1970-01-01T01:00:00Z</time>
      </trkpt>
      <trkpt lat="61.008338" lon="13.331334">
        <ele>353.091</ele>
        <time>1970-01-01T01:00:00Z</time>
      </trkpt>
      <trkpt lat="61.008252" lon="13.331269">
        <ele>352.909</ele>
        <time>1970-01-01T01:00:00Z</time>
      </trkpt>
      <trkpt lat="61.00817" lon="13.33123">
        <ele>352.727</ele>
        <time>1970-01-01T01:00:00Z</time>
      </trkpt>
      <trkpt lat="61.00808" lon="13.331192">
        <ele>352.545</ele>
        <time>1970-01-01T01:00:00Z</time>
      </trkpt>
      <trkpt lat="61.007992" lon="13.331196">
        <ele>352.364</ele>
        <time>1970-01-01T01:00:00Z</time>
      </trkpt>
      <trkpt lat="61.007908" lon="13.331203">
        <ele>352.273</ele>
        <time>1970-01-01T01:00:00Z</time>
      </trkpt>
      <trkpt lat="61.007822" lon="13.331252">
        <ele>352.182</ele>
        <time>1970-01-01T01:00:00Z</time>
      </trkpt>
      <trkpt lat="61.007726" lon="13.331259">
        <ele>352</ele>
        <time>1970-01-01T01:00:00Z</time>
      </trkpt>
      <trkpt lat="61.00766" lon="13.331357">
        <ele>351.818</ele>
        <time>1970-01-01T01:00:00Z</time>
      </trkpt>
      <trkpt lat="61.007571" lon="13.331387">
        <ele>351.727</ele>
        <time>1970-01-01T01:00:00Z</time>
      </trkpt>
      <trkpt lat="61.00749" lon="13.331375">
        <ele>351.636</ele>
        <time>1970-01-01T01:00:00Z</time>
      </trkpt>
      <trkpt lat="61.007398" lon="13.331388">
        <ele>351.545</ele>
        <time>1970-01-01T01:00:00Z</time>
      </trkpt>
      <trkpt lat="61.007316" lon="13.331378">
        <ele>351.455</ele>
        <time>1970-01-01T01:00:00Z</time>
      </trkpt>
      <trkpt lat="61.007228" lon="13.33137">
        <ele>351.364</ele>
        <time>1970-01-01T01:00:00Z</time>
      </trkpt>
      <trkpt lat="61.007144" lon="13.331397">
        <ele>351.273</ele>
        <time>1970-01-01T01:00:00Z</time>
      </trkpt>
      <trkpt lat="61.007052" lon="13.331384">
        <ele>351.182</ele>
        <time>1970-01-01T01:00:00Z</time>
      </trkpt>
      <trkpt lat="61.006962" lon="13.331329">
        <ele>351.091</ele>
        <time>1970-01-01T01:00:00Z</time>
      </trkpt>
      <trkpt lat="61.006877" lon="13.331268">
        <ele>351</ele>
        <time>1970-01-01T01:00:00Z</time>
      </trkpt>
      <trkpt lat="61.006742" lon="13.33126">
        <ele>351</ele>
        <time>1970-01-01T01:00:00Z</time>
      </trkpt>
      <trkpt lat="61.00666" lon="13.331197">
        <ele>351</ele>
        <time>1970-01-01T01:00:00Z</time>
      </trkpt>
      <trkpt lat="61.006743" lon="13.331217">
        <ele>351</ele>
        <time>1970-01-01T01:00:00Z</time>
      </trkpt>
      <trkpt lat="61.006829" lon="13.331221">
        <ele>351</ele>
        <time>1970-01-01T01:00:00Z</time>
      </trkpt>
      <trkpt lat="61.006916" lon="13.331275">
        <ele>351.091</ele>
        <time>1970-01-01T01:00:00Z</time>
      </trkpt>
      <trkpt lat="61.006989" lon="13.33136">
        <ele>351.182</ele>
        <time>1970-01-01T01:00:00Z</time>
      </trkpt>
      <trkpt lat="61.007074" lon="13.331377">
        <ele>351.273</ele>
        <time>1970-01-01T01:00:00Z</time>
      </trkpt>
      <trkpt lat="61.007159" lon="13.331434">
        <ele>351.364</ele>
        <time>1970-01-01T01:00:00Z</time>
      </trkpt>
      <trkpt lat="61.007254" lon="13.331439">
        <ele>351.455</ele>
        <time>1970-01-01T01:00:00Z</time>
      </trkpt>
      <trkpt lat="61.007344" lon="13.331456">
        <ele>351.545</ele>
        <time>1970-01-01T01:00:00Z</time>
      </trkpt>
      <trkpt lat="61.007437" lon="13.331424">
        <ele>351.636</ele>
        <time>1970-01-01T01:00:00Z</time>
      </trkpt>
      <trkpt lat="61.007527" lon="13.331398">
        <ele>351.727</ele>
        <time>1970-01-01T01:00:00Z</time>
      </trkpt>
      <trkpt lat="61.00762" lon="13.331355">
        <ele>351.909</ele>
        <time>1970-01-01T01:00:00Z</time>
      </trkpt>
      <trkpt lat="61.007706" lon="13.331327">
        <ele>352.091</ele>
        <time>1970-01-01T01:00:00Z</time>
      </trkpt>
      <trkpt lat="61.007809" lon="13.331284">
        <ele>352.273</ele>
        <time>1970-01-01T01:00:00Z</time>
      </trkpt>
      <trkpt lat="61.00791" lon="13.33125">
        <ele>352.364</ele>
        <time>1970-01-01T01:00:00Z</time>
      </trkpt>
      <trkpt lat="61.008008" lon="13.331237">
        <ele>352.455</ele>
        <time>1970-01-01T01:00:00Z</time>
      </trkpt>
      <trkpt lat="61.008111" lon="13.331225">
        <ele>352.636</ele>
        <time>1970-01-01T01:00:00Z</time>
      </trkpt>
      <trkpt lat="61.008193" lon="13.331238">
        <ele>352.818</ele>
        <time>1970-01-01T01:00:00Z</time>
      </trkpt>
      <trkpt lat="61.008279" lon="13.331268">
        <ele>353</ele>
        <time>1970-01-01T01:00:00Z</time>
      </trkpt>
      <trkpt lat="61.008366" lon="13.331286">
        <ele>353.182</ele>
        <time>1970-01-01T01:00:00Z</time>
      </trkpt>
      <trkpt lat="61.008452" lon="13.331313">
        <ele>353.364</ele>
        <time>1970-01-01T01:00:00Z</time>
      </trkpt>
      <trkpt lat="61.008545" lon="13.331377">
        <ele>353.636</ele>
        <time>1970-01-01T01:00:00Z</time>
      </trkpt>
      <trkpt lat="61.008629" lon="13.331458">
        <ele>353.818</ele>
        <time>1970-01-01T01:00:00Z</time>
      </trkpt>
      <trkpt lat="61.008716" lon="13.331539">
        <ele>354</ele>
        <time>1970-01-01T01:00:00Z</time>
      </trkpt>
      <trkpt lat="61.008794" lon="13.331602">
        <ele>354.273</ele>
        <time>1970-01-01T01:00:00Z</time>
      </trkpt>
      <trkpt lat="61.008868" lon="13.33169">
        <ele>354.545</ele>
        <time>1970-01-01T01:00:00Z</time>
      </trkpt>
      <trkpt lat="61.008932" lon="13.331827">
        <ele>354.818</ele>
        <time>1970-01-01T01:00:00Z</time>
      </trkpt>
      <trkpt lat="61.008992" lon="13.331942">
        <ele>355.091</ele>
        <time>1970-01-01T01:00:00Z</time>
      </trkpt>
      <trkpt lat="61.009062" lon="13.332038">
        <ele>355.364</ele>
        <time>1970-01-01T01:00:00Z</time>
      </trkpt>
      <trkpt lat="61.009139" lon="13.332097">
        <ele>355.727</ele>
        <time>1970-01-01T01:00:00Z</time>
      </trkpt>
      <trkpt lat="61.009211" lon="13.332197">
        <ele>356.091</ele>
        <time>1970-01-01T01:00:00Z</time>
      </trkpt>
      <trkpt lat="61.009268" lon="13.332314">
        <ele>356.455</ele>
        <time>1970-01-01T01:00:00Z</time>
      </trkpt>
      <trkpt lat="61.009336" lon="13.33243">
        <ele>356.818</ele>
        <time>1970-01-01T01:00:00Z</time>
      </trkpt>
      <trkpt lat="61.00941" lon="13.332528">
        <ele>357.182</ele>
        <time>1970-01-01T01:00:00Z</time>
      </trkpt>
      <trkpt lat="61.009468" lon="13.332654">
        <ele>357.636</ele>
        <time>1970-01-01T01:00:00Z</time>
      </trkpt>
      <trkpt lat="61.009533" lon="13.332769">
        <ele>358</ele>
        <time>1970-01-01T01:00:00Z</time>
      </trkpt>
      <trkpt lat="61.009601" lon="13.332875">
        <ele>358.364</ele>
        <time>1970-01-01T01:00:00Z</time>
      </trkpt>
      <trkpt lat="61.009672" lon="13.332965">
        <ele>358.818</ele>
        <time>1970-01-01T01:00:00Z</time>
      </trkpt>
      <trkpt lat="61.009736" lon="13.333081">
        <ele>359.182</ele>
        <time>1970-01-01T01:00:00Z</time>
      </trkpt>
      <trkpt lat="61.0098" lon="13.333209">
        <ele>359.636</ele>
        <time>1970-01-01T01:00:00Z</time>
      </trkpt>
      <trkpt lat="61.009866" lon="13.333313">
        <ele>360</ele>
        <time>1970-01-01T01:00:00Z</time>
      </trkpt>
      <trkpt lat="61.009948" lon="13.333442">
        <ele>360.455</ele>
        <time>1970-01-01T01:00:00Z</time>
      </trkpt>
      <trkpt lat="61.010018" lon="13.333562">
        <ele>360.909</ele>
        <time>1970-01-01T01:00:00Z</time>
      </trkpt>
      <trkpt lat="61.010083" lon="13.333664">
        <ele>361.364</ele>
        <time>1970-01-01T01:00:00Z</time>
      </trkpt>
      <trkpt lat="61.010147" lon="13.333808">
        <ele>361.818</ele>
        <time>1970-01-01T01:00:00Z</time>
      </trkpt>
      <trkpt lat="61.010227" lon="13.333923">
        <ele>362.182</ele>
        <time>1970-01-01T01:00:00Z</time>
      </trkpt>
      <trkpt lat="61.010291" lon="13.334082">
        <ele>362.545</ele>
        <time>1970-01-01T01:00:00Z</time>
      </trkpt>
      <trkpt lat="61.010357" lon="13.334211">
        <ele>362.909</ele>
        <time>1970-01-01T01:00:00Z</time>
      </trkpt>
      <trkpt lat="61.010417" lon="13.33435">
        <ele>363.273</ele>
        <time>1970-01-01T01:00:00Z</time>
      </trkpt>
      <trkpt lat="61.010468" lon="13.334488">
        <ele>363.636</ele>
        <time>1970-01-01T01:00:00Z</time>
      </trkpt>
      <trkpt lat="61.010523" lon="13.334613">
        <ele>363.909</ele>
        <time>1970-01-01T01:00:00Z</time>
      </trkpt>
      <trkpt lat="61.010604" lon="13.334705">
        <ele>364.182</ele>
        <time>1970-01-01T01:00:00Z</time>
      </trkpt>
      <trkpt lat="61.010679" lon="13.334811">
        <ele>364.364</ele>
        <time>1970-01-01T01:00:00Z</time>
      </trkpt>
      <trkpt lat="61.010754" lon="13.334892">
        <ele>364.545</ele>
        <time>1970-01-01T01:00:00Z</time>
      </trkpt>
      <trkpt lat="61.010891" lon="13.335065">
        <ele>364.636</ele>
        <time>1970-01-01T01:00:00Z</time>
      </trkpt>
      <trkpt lat="61.010967" lon="13.335153">
        <ele>364.727</ele>
        <time>1970-01-01T01:00:00Z</time>
      </trkpt>
      <trkpt lat="61.011035" lon="13.335259">
        <ele>364.818</ele>
        <time>1970-01-01T01:00:00Z</time>
      </trkpt>
      <trkpt lat="61.011119" lon="13.335293">
        <ele>364.909</ele>
        <time>1970-01-01T01:00:00Z</time>
      </trkpt>
      <trkpt lat="61.0112" lon="13.335343">
        <ele>365.091</ele>
        <time>1970-01-01T01:00:00Z</time>
      </trkpt>
      <trkpt lat="61.011274" lon="13.335461">
        <ele>365.182</ele>
        <time>1970-01-01T01:00:00Z</time>
      </trkpt>
      <trkpt lat="61.011361" lon="13.335514">
        <ele>365.273</ele>
        <time>1970-01-01T01:00:00Z</time>
      </trkpt>
      <trkpt lat="61.011445" lon="13.335559">
        <ele>365.364</ele>
        <time>1970-01-01T01:00:00Z</time>
      </trkpt>
      <trkpt lat="61.011517" lon="13.335639">
        <ele>365.364</ele>
        <time>1970-01-01T01:00:00Z</time>
      </trkpt>
      <trkpt lat="61.011596" lon="13.335718">
        <ele>365.455</ele>
        <time>1970-01-01T01:00:00Z</time>
      </trkpt>
      <trkpt lat="61.011693" lon="13.335748">
        <ele>365.545</ele>
        <time>1970-01-01T01:00:00Z</time>
      </trkpt>
      <trkpt lat="61.011769" lon="13.335814">
        <ele>365.636</ele>
        <time>1970-01-01T01:00:00Z</time>
      </trkpt>
      <trkpt lat="61.011838" lon="13.335911">
        <ele>365.636</ele>
        <time>1970-01-01T01:00:00Z</time>
      </trkpt>
      <trkpt lat="61.011927" lon="13.335951">
        <ele>365.636</ele>
        <time>1970-01-01T01:00:00Z</time>
      </trkpt>
      <trkpt lat="61.012007" lon="13.335983">
        <ele>365.636</ele>
        <time>1970-01-01T01:00:00Z</time>
      </trkpt>
      <trkpt lat="61.01209" lon="13.335993">
        <ele>365.545</ele>
        <time>1970-01-01T01:00:00Z</time>
      </trkpt>
      <trkpt lat="61.012194" lon="13.336005">
        <ele>365.455</ele>
        <time>1970-01-01T01:00:00Z</time>
      </trkpt>
      <trkpt lat="61.012287" lon="13.336012">
        <ele>365.364</ele>
        <time>1970-01-01T01:00:00Z</time>
      </trkpt>
      <trkpt lat="61.012379" lon="13.335991">
        <ele>365.273</ele>
        <time>1970-01-01T01:00:00Z</time>
      </trkpt>
      <trkpt lat="61.012465" lon="13.335973">
        <ele>365.182</ele>
        <time>1970-01-01T01:00:00Z</time>
      </trkpt>
      <trkpt lat="61.012546" lon="13.335946">
        <ele>365</ele>
        <time>1970-01-01T01:00:00Z</time>
      </trkpt>
      <trkpt lat="61.012653" lon="13.335917">
        <ele>364.818</ele>
        <time>1970-01-01T01:00:00Z</time>
      </trkpt>
      <trkpt lat="61.012789" lon="13.33587">
        <ele>364.636</ele>
        <time>1970-01-01T01:00:00Z</time>
      </trkpt>
      <trkpt lat="61.012884" lon="13.335852">
        <ele>364.455</ele>
        <time>1970-01-01T01:00:00Z</time>
      </trkpt>
      <trkpt lat="61.012965" lon="13.335811">
        <ele>364.273</ele>
        <time>1970-01-01T01:00:00Z</time>
      </trkpt>
      <trkpt lat="61.013055" lon="13.335789">
        <ele>364.091</ele>
        <time>1970-01-01T01:00:00Z</time>
      </trkpt>
      <trkpt lat="61.013144" lon="13.335737">
        <ele>363.909</ele>
        <time>1970-01-01T01:00:00Z</time>
      </trkpt>
      <trkpt lat="61.013239" lon="13.335731">
        <ele>363.727</ele>
        <time>1970-01-01T01:00:00Z</time>
      </trkpt>
      <trkpt lat="61.013334" lon="13.335681">
        <ele>363.545</ele>
        <time>1970-01-01T01:00:00Z</time>
      </trkpt>
      <trkpt lat="61.013423" lon="13.335631">
        <ele>363.273</ele>
        <time>1970-01-01T01:00:00Z</time>
      </trkpt>
      <trkpt lat="61.013509" lon="13.335596">
        <ele>363.091</ele>
        <time>1970-01-01T01:00:00Z</time>
      </trkpt>
      <trkpt lat="61.0136" lon="13.335596">
        <ele>362.909</ele>
        <time>1970-01-01T01:00:00Z</time>
      </trkpt>
      <trkpt lat="61.013688" lon="13.335618">
        <ele>362.727</ele>
        <time>1970-01-01T01:00:00Z</time>
      </trkpt>
      <trkpt lat="61.013774" lon="13.335605">
        <ele>362.545</ele>
        <time>1970-01-01T01:00:00Z</time>
      </trkpt>
      <trkpt lat="61.013862" lon="13.335578">
        <ele>362.364</ele>
        <time>1970-01-01T01:00:00Z</time>
      </trkpt>
      <trkpt lat="61.013957" lon="13.335575">
        <ele>362.182</ele>
        <time>1970-01-01T01:00:00Z</time>
      </trkpt>
      <trkpt lat="61.014044" lon="13.33558">
        <ele>362</ele>
        <time>1970-01-01T01:00:00Z</time>
      </trkpt>
      <trkpt lat="61.014125" lon="13.335594">
        <ele>361.818</ele>
        <time>1970-01-01T01:00:00Z</time>
      </trkpt>
      <trkpt lat="61.014205" lon="13.335552">
        <ele>361.636</ele>
        <time>1970-01-01T01:00:00Z</time>
      </trkpt>
      <trkpt lat="61.014287" lon="13.335509">
        <ele>361.364</ele>
        <time>1970-01-01T01:00:00Z</time>
      </trkpt>
      <trkpt lat="61.01437" lon="13.335461">
        <ele>361.182</ele>
        <time>1970-01-01T01:00:00Z</time>
      </trkpt>
      <trkpt lat="61.014463" lon="13.33542">
        <ele>361</ele>
        <time>1970-01-01T01:00:00Z</time>
      </trkpt>
      <trkpt lat="61.014557" lon="13.335405">
        <ele>360.727</ele>
        <time>1970-01-01T01:00:00Z</time>
      </trkpt>
      <trkpt lat="61.014656" lon="13.335403">
        <ele>360.455</ele>
        <time>1970-01-01T01:00:00Z</time>
      </trkpt>
      <trkpt lat="61.014739" lon="13.335405">
        <ele>360.182</ele>
        <time>1970-01-01T01:00:00Z</time>
      </trkpt>
      <trkpt lat="61.014828" lon="13.33542">
        <ele>360</ele>
        <time>1970-01-01T01:00:00Z</time>
      </trkpt>
      <trkpt lat="61.014922" lon="13.33543">
        <ele>359.818</ele>
        <time>1970-01-01T01:00:00Z</time>
      </trkpt>
      <trkpt lat="61.015008" lon="13.335404">
        <ele>359.636</ele>
        <time>1970-01-01T01:00:00Z</time>
      </trkpt>
      <trkpt lat="61.015087" lon="13.335372">
        <ele>359.364</ele>
        <time>1970-01-01T01:00:00Z</time>
      </trkpt>
      <trkpt lat="61.015178" lon="13.335376">
        <ele>359.091</ele>
        <time>1970-01-01T01:00:00Z</time>
      </trkpt>
      <trkpt lat="61.015263" lon="13.33536">
        <ele>358.909</ele>
        <time>1970-01-01T01:00:00Z</time>
      </trkpt>
      <trkpt lat="61.015348" lon="13.335385">
        <ele>358.818</ele>
        <time>1970-01-01T01:00:00Z</time>
      </trkpt>
      <trkpt lat="61.015438" lon="13.335387">
        <ele>358.727</ele>
        <time>1970-01-01T01:00:00Z</time>
      </trkpt>
      <trkpt lat="61.015521" lon="13.335375">
        <ele>358.636</ele>
        <time>1970-01-01T01:00:00Z</time>
      </trkpt>
      <trkpt lat="61.015603" lon="13.335377">
        <ele>358.545</ele>
        <time>1970-01-01T01:00:00Z</time>
      </trkpt>
      <trkpt lat="61.015686" lon="13.335397">
        <ele>358.455</ele>
        <time>1970-01-01T01:00:00Z</time>
      </trkpt>
      <trkpt lat="61.015765" lon="13.335448">
        <ele>358.364</ele>
        <time>1970-01-01T01:00:00Z</time>
      </trkpt>
      <trkpt lat="61.015854" lon="13.335484">
        <ele>358.182</ele>
        <time>1970-01-01T01:00:00Z</time>
      </trkpt>
      <trkpt lat="61.015939" lon="13.335492">
        <ele>358</ele>
        <time>1970-01-01T01:00:00Z</time>
      </trkpt>
      <trkpt lat="61.016025" lon="13.33552">
        <ele>357.909</ele>
        <time>1970-01-01T01:00:00Z</time>
      </trkpt>
      <trkpt lat="61.016106" lon="13.335522">
        <ele>357.818</ele>
        <time>1970-01-01T01:00:00Z</time>
      </trkpt>
      <trkpt lat="61.016188" lon="13.335531">
        <ele>357.727</ele>
        <time>1970-01-01T01:00:00Z</time>
      </trkpt>
      <trkpt lat="61.016277" lon="13.33554">
        <ele>357.455</ele>
        <time>1970-01-01T01:00:00Z</time>
      </trkpt>
      <trkpt lat="61.016359" lon="13.335552">
        <ele>357.182</ele>
        <time>1970-01-01T01:00:00Z</time>
      </trkpt>
      <trkpt lat="61.016451" lon="13.335575">
        <ele>357</ele>
        <time>1970-01-01T01:00:00Z</time>
      </trkpt>
      <trkpt lat="61.016532" lon="13.335614">
        <ele>356.818</ele>
        <time>1970-01-01T01:00:00Z</time>
      </trkpt>
      <trkpt lat="61.01662" lon="13.335667">
        <ele>356.636</ele>
        <time>1970-01-01T01:00:00Z</time>
      </trkpt>
      <trkpt lat="61.016709" lon="13.335685">
        <ele>356.455</ele>
        <time>1970-01-01T01:00:00Z</time>
      </trkpt>
      <trkpt lat="61.016802" lon="13.335693">
        <ele>356.364</ele>
        <time>1970-01-01T01:00:00Z</time>
      </trkpt>
      <trkpt lat="61.016897" lon="13.335707">
        <ele>356.273</ele>
        <time>1970-01-01T01:00:00Z</time>
      </trkpt>
      <trkpt lat="61.016984" lon="13.335729">
        <ele>356.091</ele>
        <time>1970-01-01T01:00:00Z</time>
      </trkpt>
      <trkpt lat="61.017069" lon="13.335788">
        <ele>355.909</ele>
        <time>1970-01-01T01:00:00Z</time>
      </trkpt>
      <trkpt lat="61.01716" lon="13.335826">
        <ele>355.727</ele>
        <time>1970-01-01T01:00:00Z</time>
      </trkpt>
      <trkpt lat="61.017245" lon="13.335855">
        <ele>355.636</ele>
        <time>1970-01-01T01:00:00Z</time>
      </trkpt>
      <trkpt lat="61.01733" lon="13.335843">
        <ele>355.545</ele>
        <time>1970-01-01T01:00:00Z</time>
      </trkpt>
      <trkpt lat="61.01742" lon="13.335856">
        <ele>355.364</ele>
        <time>1970-01-01T01:00:00Z</time>
      </trkpt>
      <trkpt lat="61.017501" lon="13.335898">
        <ele>355.182</ele>
        <time>1970-01-01T01:00:00Z</time>
      </trkpt>
      <trkpt lat="61.01759" lon="13.335927">
        <ele>355</ele>
        <time>1970-01-01T01:00:00Z</time>
      </trkpt>
      <trkpt lat="61.017673" lon="13.335952">
        <ele>354.818</ele>
        <time>1970-01-01T01:00:00Z</time>
      </trkpt>
      <trkpt lat="61.017769" lon="13.335966">
        <ele>354.636</ele>
        <time>1970-01-01T01:00:00Z</time>
      </trkpt>
      <trkpt lat="61.017851" lon="13.335987">
        <ele>354.455</ele>
        <time>1970-01-01T01:00:00Z</time>
      </trkpt>
      <trkpt lat="61.01794" lon="13.335994">
        <ele>354.364</ele>
        <time>1970-01-01T01:00:00Z</time>
      </trkpt>
      <trkpt lat="61.018024" lon="13.336032">
        <ele>354.273</ele>
        <time>1970-01-01T01:00:00Z</time>
      </trkpt>
      <trkpt lat="61.018098" lon="13.336116">
        <ele>354.182</ele>
        <time>1970-01-01T01:00:00Z</time>
      </trkpt>
      <trkpt lat="61.018186" lon="13.336172">
        <ele>354.091</ele>
        <time>1970-01-01T01:00:00Z</time>
      </trkpt>
      <trkpt lat="61.018275" lon="13.336228">
        <ele>354</ele>
        <time>1970-01-01T01:00:00Z</time>
      </trkpt>
      <trkpt lat="61.01837" lon="13.336284">
        <ele>354</ele>
        <time>1970-01-01T01:00:00Z</time>
      </trkpt>
      <trkpt lat="61.018446" lon="13.336375">
        <ele>354</ele>
        <time>1970-01-01T01:00:00Z</time>
      </trkpt>
      <trkpt lat="61.018532" lon="13.336485">
        <ele>354</ele>
        <time>1970-01-01T01:00:00Z</time>
      </trkpt>
      <trkpt lat="61.018603" lon="13.336571">
        <ele>354</ele>
        <time>1970-01-01T01:00:00Z</time>
      </trkpt>
      <trkpt lat="61.018682" lon="13.336649">
        <ele>354</ele>
        <time>1970-01-01T01:00:00Z</time>
      </trkpt>
      <trkpt lat="61.018755" lon="13.336786">
        <ele>354</ele>
        <time>1970-01-01T01:00:00Z</time>
      </trkpt>
      <trkpt lat="61.018826" lon="13.336894">
        <ele>354</ele>
        <time>1970-01-01T01:00:00Z</time>
      </trkpt>
      <trkpt lat="61.018901" lon="13.336989">
        <ele>354</ele>
        <time>1970-01-01T01:00:00Z</time>
      </trkpt>
      <trkpt lat="61.018986" lon="13.337056">
        <ele>354</ele>
        <time>1970-01-01T01:00:00Z</time>
      </trkpt>
      <trkpt lat="61.019073" lon="13.33713">
        <ele>354</ele>
        <time>1970-01-01T01:00:00Z</time>
      </trkpt>
      <trkpt lat="61.019151" lon="13.337223">
        <ele>354</ele>
        <time>1970-01-01T01:00:00Z</time>
      </trkpt>
      <trkpt lat="61.019245" lon="13.337303">
        <ele>354</ele>
        <time>1970-01-01T01:00:00Z</time>
      </trkpt>
      <trkpt lat="61.019323" lon="13.337377">
        <ele>354</ele>
        <time>1970-01-01T01:00:00Z</time>
      </trkpt>
      <trkpt lat="61.019402" lon="13.337479">
        <ele>354</ele>
        <time>1970-01-01T01:00:00Z</time>
      </trkpt>
      <trkpt lat="61.01948" lon="13.337556">
        <ele>354</ele>
        <time>1970-01-01T01:00:00Z</time>
      </trkpt>
      <trkpt lat="61.019558" lon="13.337644">
        <ele>354</ele>
        <time>1970-01-01T01:00:00Z</time>
      </trkpt>
      <trkpt lat="61.019645" lon="13.337724">
        <ele>354</ele>
        <time>1970-01-01T01:00:00Z</time>
      </trkpt>
      <trkpt lat="61.019718" lon="13.337823">
        <ele>354</ele>
        <time>1970-01-01T01:00:00Z</time>
      </trkpt>
      <trkpt lat="61.019803" lon="13.337866">
        <ele>353.909</ele>
        <time>1970-01-01T01:00:00Z</time>
      </trkpt>
      <trkpt lat="61.019883" lon="13.337899">
        <ele>353.818</ele>
        <time>1970-01-01T01:00:00Z</time>
      </trkpt>
      <trkpt lat="61.019959" lon="13.337975">
        <ele>353.727</ele>
        <time>1970-01-01T01:00:00Z</time>
      </trkpt>
      <trkpt lat="61.020043" lon="13.338069">
        <ele>353.636</ele>
        <time>1970-01-01T01:00:00Z</time>
      </trkpt>
      <trkpt lat="61.020125" lon="13.33812">
        <ele>353.545</ele>
        <time>1970-01-01T01:00:00Z</time>
      </trkpt>
      <trkpt lat="61.020206" lon="13.338154">
        <ele>353.455</ele>
        <time>1970-01-01T01:00:00Z</time>
      </trkpt>
      <trkpt lat="61.020289" lon="13.338217">
        <ele>353.364</ele>
        <time>1970-01-01T01:00:00Z</time>
      </trkpt>
      <trkpt lat="61.020365" lon="13.338293">
        <ele>353.273</ele>
        <time>1970-01-01T01:00:00Z</time>
      </trkpt>
      <trkpt lat="61.020447" lon="13.338338">
        <ele>353.182</ele>
        <time>1970-01-01T01:00:00Z</time>
      </trkpt>
      <trkpt lat="61.020535" lon="13.338369">
        <ele>353</ele>
        <time>1970-01-01T01:00:00Z</time>
      </trkpt>
      <trkpt lat="61.020622" lon="13.338406">
        <ele>352.818</ele>
        <time>1970-01-01T01:00:00Z</time>
      </trkpt>
      <trkpt lat="61.020699" lon="13.33846">
        <ele>352.727</ele>
        <time>1970-01-01T01:00:00Z</time>
      </trkpt>
      <trkpt lat="61.020778" lon="13.338506">
        <ele>352.636</ele>
        <time>1970-01-01T01:00:00Z</time>
      </trkpt>
      <trkpt lat="61.020861" lon="13.338531">
        <ele>352.545</ele>
        <time>1970-01-01T01:00:00Z</time>
      </trkpt>
      <trkpt lat="61.02095" lon="13.338541">
        <ele>352.455</ele>
        <time>1970-01-01T01:00:00Z</time>
      </trkpt>
      <trkpt lat="61.021032" lon="13.338576">
        <ele>352.273</ele>
        <time>1970-01-01T01:00:00Z</time>
      </trkpt>
      <trkpt lat="61.021126" lon="13.338614">
        <ele>352.091</ele>
        <time>1970-01-01T01:00:00Z</time>
      </trkpt>
      <trkpt lat="61.021208" lon="13.338659">
        <ele>351.909</ele>
        <time>1970-01-01T01:00:00Z</time>
      </trkpt>
      <trkpt lat="61.021299" lon="13.338718">
        <ele>351.727</ele>
        <time>1970-01-01T01:00:00Z</time>
      </trkpt>
      <trkpt lat="61.021385" lon="13.338749">
        <ele>351.545</ele>
        <time>1970-01-01T01:00:00Z</time>
      </trkpt>
      <trkpt lat="61.021465" lon="13.338796">
        <ele>351.455</ele>
        <time>1970-01-01T01:00:00Z</time>
      </trkpt>
      <trkpt lat="61.021549" lon="13.338852">
        <ele>351.364</ele>
        <time>1970-01-01T01:00:00Z</time>
      </trkpt>
      <trkpt lat="61.021627" lon="13.338904">
        <ele>351.273</ele>
        <time>1970-01-01T01:00:00Z</time>
      </trkpt>
      <trkpt lat="61.021716" lon="13.338939">
        <ele>351.182</ele>
        <time>1970-01-01T01:00:00Z</time>
      </trkpt>
      <trkpt lat="61.021809" lon="13.338959">
        <ele>351.091</ele>
        <time>1970-01-01T01:00:00Z</time>
      </trkpt>
      <trkpt lat="61.021892" lon="13.338977">
        <ele>351</ele>
        <time>1970-01-01T01:00:00Z</time>
      </trkpt>
      <trkpt lat="61.021999" lon="13.338998">
        <ele>351</ele>
        <time>1970-01-01T01:00:00Z</time>
      </trkpt>
      <trkpt lat="61.022082" lon="13.339009">
        <ele>351</ele>
        <time>1970-01-01T01:00:00Z</time>
      </trkpt>
      <trkpt lat="61.022169" lon="13.339005">
        <ele>351</ele>
        <time>1970-01-01T01:00:00Z</time>
      </trkpt>
      <trkpt lat="61.022262" lon="13.338997">
        <ele>351</ele>
        <time>1970-01-01T01:00:00Z</time>
      </trkpt>
      <trkpt lat="61.022357" lon="13.339049">
        <ele>351</ele>
        <time>1970-01-01T01:00:00Z</time>
      </trkpt>
      <trkpt lat="61.022438" lon="13.33907">
        <ele>351</ele>
        <time>1970-01-01T01:00:00Z</time>
      </trkpt>
      <trkpt lat="61.02252" lon="13.339082">
        <ele>351</ele>
        <time>1970-01-01T01:00:00Z</time>
      </trkpt>
      <trkpt lat="61.022605" lon="13.339096">
        <ele>351</ele>
        <time>1970-01-01T01:00:00Z</time>
      </trkpt>
      <trkpt lat="61.022688" lon="13.339132">
        <ele>351</ele>
        <time>1970-01-01T01:00:00Z</time>
      </trkpt>
      <trkpt lat="61.022777" lon="13.339156">
        <ele>351</ele>
        <time>1970-01-01T01:00:00Z</time>
      </trkpt>
      <trkpt lat="61.022861" lon="13.339192">
        <ele>351</ele>
        <time>1970-01-01T01:00:00Z</time>
      </trkpt>
      <trkpt lat="61.022944" lon="13.339227">
        <ele>351</ele>
        <time>1970-01-01T01:00:00Z</time>
      </trkpt>
      <trkpt lat="61.023034" lon="13.339236">
        <ele>351</ele>
        <time>1970-01-01T01:00:00Z</time>
      </trkpt>
      <trkpt lat="61.023117" lon="13.339288">
        <ele>351</ele>
        <time>1970-01-01T01:00:00Z</time>
      </trkpt>
      <trkpt lat="61.023208" lon="13.339327">
        <ele>351</ele>
        <time>1970-01-01T01:00:00Z</time>
      </trkpt>
      <trkpt lat="61.023289" lon="13.33933">
        <ele>351</ele>
        <time>1970-01-01T01:00:00Z</time>
      </trkpt>
      <trkpt lat="61.023381" lon="13.339326">
        <ele>351</ele>
        <time>1970-01-01T01:00:00Z</time>
      </trkpt>
      <trkpt lat="61.023476" lon="13.339341">
        <ele>351</ele>
        <time>1970-01-01T01:00:00Z</time>
      </trkpt>
      <trkpt lat="61.023625" lon="13.339413">
        <ele>351</ele>
        <time>1970-01-01T01:00:00Z</time>
      </trkpt>
      <trkpt lat="61.023715" lon="13.339416">
        <ele>351</ele>
        <time>1970-01-01T01:00:00Z</time>
      </trkpt>
      <trkpt lat="61.023798" lon="13.339437">
        <ele>351.091</ele>
        <time>1970-01-01T01:00:00Z</time>
      </trkpt>
      <trkpt lat="61.023885" lon="13.339492">
        <ele>351.182</ele>
        <time>1970-01-01T01:00:00Z</time>
      </trkpt>
      <trkpt lat="61.023981" lon="13.339516">
        <ele>351.273</ele>
        <time>1970-01-01T01:00:00Z</time>
      </trkpt>
      <trkpt lat="61.024073" lon="13.339495">
        <ele>351.364</ele>
        <time>1970-01-01T01:00:00Z</time>
      </trkpt>
      <trkpt lat="61.024162" lon="13.339559">
        <ele>351.455</ele>
        <time>1970-01-01T01:00:00Z</time>
      </trkpt>
      <trkpt lat="61.024254" lon="13.339577">
        <ele>351.545</ele>
        <time>1970-01-01T01:00:00Z</time>
      </trkpt>
      <trkpt lat="61.024338" lon="13.339607">
        <ele>351.727</ele>
        <time>1970-01-01T01:00:00Z</time>
      </trkpt>
      <trkpt lat="61.024424" lon="13.339552">
        <ele>351.909</ele>
        <time>1970-01-01T01:00:00Z</time>
      </trkpt>
      <trkpt lat="61.024514" lon="13.339597">
        <ele>352.091</ele>
        <time>1970-01-01T01:00:00Z</time>
      </trkpt>
      <trkpt lat="61.024597" lon="13.339628">
        <ele>352.273</ele>
        <time>1970-01-01T01:00:00Z</time>
      </trkpt>
      <trkpt lat="61.02468" lon="13.339603">
        <ele>352.455</ele>
        <time>1970-01-01T01:00:00Z</time>
      </trkpt>
      <trkpt lat="61.024768" lon="13.339573">
        <ele>352.636</ele>
        <time>1970-01-01T01:00:00Z</time>
      </trkpt>
      <trkpt lat="61.024849" lon="13.339555">
        <ele>352.818</ele>
        <time>1970-01-01T01:00:00Z</time>
      </trkpt>
      <trkpt lat="61.02494" lon="13.339589">
        <ele>353</ele>
        <time>1970-01-01T01:00:00Z</time>
      </trkpt>
      <trkpt lat="61.025029" lon="13.339651">
        <ele>353.182</ele>
        <time>1970-01-01T01:00:00Z</time>
      </trkpt>
      <trkpt lat="61.025118" lon="13.339675">
        <ele>353.364</ele>
        <time>1970-01-01T01:00:00Z</time>
      </trkpt>
      <trkpt lat="61.025217" lon="13.339716">
        <ele>353.636</ele>
        <time>1970-01-01T01:00:00Z</time>
      </trkpt>
      <trkpt lat="61.025306" lon="13.339707">
        <ele>353.818</ele>
        <time>1970-01-01T01:00:00Z</time>
      </trkpt>
      <trkpt lat="61.025401" lon="13.339741">
        <ele>354</ele>
        <time>1970-01-01T01:00:00Z</time>
      </trkpt>
      <trkpt lat="61.025496" lon="13.339734">
        <ele>354.182</ele>
        <time>1970-01-01T01:00:00Z</time>
      </trkpt>
      <trkpt lat="61.025586" lon="13.339752">
        <ele>354.364</ele>
        <time>1970-01-01T01:00:00Z</time>
      </trkpt>
      <trkpt lat="61.02567" lon="13.339771">
        <ele>354.545</ele>
        <time>1970-01-01T01:00:00Z</time>
      </trkpt>
      <trkpt lat="61.025753" lon="13.339785">
        <ele>354.636</ele>
        <time>1970-01-01T01:00:00Z</time>
      </trkpt>
      <trkpt lat="61.025851" lon="13.339795">
        <ele>354.727</ele>
        <time>1970-01-01T01:00:00Z</time>
      </trkpt>
      <trkpt lat="61.025947" lon="13.339777">
        <ele>354.818</ele>
        <time>1970-01-01T01:00:00Z</time>
      </trkpt>
      <trkpt lat="61.026037" lon="13.339764">
        <ele>354.909</ele>
        <time>1970-01-01T01:00:00Z</time>
      </trkpt>
      <trkpt lat="61.026119" lon="13.33974">
        <ele>355</ele>
        <time>1970-01-01T01:00:00Z</time>
      </trkpt>
      <trkpt lat="61.026202" lon="13.339711">
        <ele>355</ele>
        <time>1970-01-01T01:00:00Z</time>
      </trkpt>
      <trkpt lat="61.026295" lon="13.339701">
        <ele>354.909</ele>
        <time>1970-01-01T01:00:00Z</time>
      </trkpt>
      <trkpt lat="61.026377" lon="13.339692">
        <ele>354.909</ele>
        <time>1970-01-01T01:00:00Z</time>
      </trkpt>
      <trkpt lat="61.026459" lon="13.339649">
        <ele>354.909</ele>
        <time>1970-01-01T01:00:00Z</time>
      </trkpt>
      <trkpt lat="61.02654" lon="13.339608">
        <ele>354.818</ele>
        <time>1970-01-01T01:00:00Z</time>
      </trkpt>
      <trkpt lat="61.026626" lon="13.339595">
        <ele>354.818</ele>
        <time>1970-01-01T01:00:00Z</time>
      </trkpt>
      <trkpt lat="61.026713" lon="13.339576">
        <ele>354.727</ele>
        <time>1970-01-01T01:00:00Z</time>
      </trkpt>
      <trkpt lat="61.026795" lon="13.339589">
        <ele>354.636</ele>
        <time>1970-01-01T01:00:00Z</time>
      </trkpt>
      <trkpt lat="61.02689" lon="13.339584">
        <ele>354.545</ele>
        <time>1970-01-01T01:00:00Z</time>
      </trkpt>
      <trkpt lat="61.02698" lon="13.339581">
        <ele>354.545</ele>
        <time>1970-01-01T01:00:00Z</time>
      </trkpt>
      <trkpt lat="61.027066" lon="13.339599">
        <ele>354.545</ele>
        <time>1970-01-01T01:00:00Z</time>
      </trkpt>
      <trkpt lat="61.027156" lon="13.33958">
        <ele>354.545</ele>
        <time>1970-01-01T01:00:00Z</time>
      </trkpt>
      <trkpt lat="61.027251" lon="13.339555">
        <ele>354.636</ele>
        <time>1970-01-01T01:00:00Z</time>
      </trkpt>
      <trkpt lat="61.027341" lon="13.339574">
        <ele>354.636</ele>
        <time>1970-01-01T01:00:00Z</time>
      </trkpt>
      <trkpt lat="61.027434" lon="13.339589">
        <ele>354.636</ele>
        <time>1970-01-01T01:00:00Z</time>
      </trkpt>
      <trkpt lat="61.027517" lon="13.339608">
        <ele>354.727</ele>
        <time>1970-01-01T01:00:00Z</time>
      </trkpt>
      <trkpt lat="61.027599" lon="13.339647">
        <ele>354.727</ele>
        <time>1970-01-01T01:00:00Z</time>
      </trkpt>
      <trkpt lat="61.027682" lon="13.339666">
        <ele>354.818</ele>
        <time>1970-01-01T01:00:00Z</time>
      </trkpt>
      <trkpt lat="61.027772" lon="13.339664">
        <ele>354.909</ele>
        <time>1970-01-01T01:00:00Z</time>
      </trkpt>
      <trkpt lat="61.027865" lon="13.339649">
        <ele>355</ele>
        <time>1970-01-01T01:00:00Z</time>
      </trkpt>
      <trkpt lat="61.027948" lon="13.339647">
        <ele>355</ele>
        <time>1970-01-01T01:00:00Z</time>
      </trkpt>
      <trkpt lat="61.028048" lon="13.339633">
        <ele>355</ele>
        <time>1970-01-01T01:00:00Z</time>
      </trkpt>
      <trkpt lat="61.028144" lon="13.339617">
        <ele>354.909</ele>
        <time>1970-01-01T01:00:00Z</time>
      </trkpt>
      <trkpt lat="61.028235" lon="13.339596">
        <ele>354.818</ele>
        <time>1970-01-01T01:00:00Z</time>
      </trkpt>
      <trkpt lat="61.028316" lon="13.339589">
        <ele>354.727</ele>
        <time>1970-01-01T01:00:00Z</time>
      </trkpt>
      <trkpt lat="61.028401" lon="13.339615">
        <ele>354.727</ele>
        <time>1970-01-01T01:00:00Z</time>
      </trkpt>
      <trkpt lat="61.028507" lon="13.339596">
        <ele>354.727</ele>
        <time>1970-01-01T01:00:00Z</time>
      </trkpt>
      <trkpt lat="61.028593" lon="13.339571">
        <ele>354.727</ele>
        <time>1970-01-01T01:00:00Z</time>
      </trkpt>
      <trkpt lat="61.028682" lon="13.339573">
        <ele>354.727</ele>
        <time>1970-01-01T01:00:00Z</time>
      </trkpt>
      <trkpt lat="61.028772" lon="13.339572">
        <ele>354.636</ele>
        <time>1970-01-01T01:00:00Z</time>
      </trkpt>
      <trkpt lat="61.028853" lon="13.339584">
        <ele>354.545</ele>
        <time>1970-01-01T01:00:00Z</time>
      </trkpt>
      <trkpt lat="61.028943" lon="13.339644">
        <ele>354.455</ele>
        <time>1970-01-01T01:00:00Z</time>
      </trkpt>
      <trkpt lat="61.029053" lon="13.339627">
        <ele>354.364</ele>
        <time>1970-01-01T01:00:00Z</time>
      </trkpt>
      <trkpt lat="61.029142" lon="13.339595">
        <ele>354.364</ele>
        <time>1970-01-01T01:00:00Z</time>
      </trkpt>
      <trkpt lat="61.029233" lon="13.339568">
        <ele>354.364</ele>
        <time>1970-01-01T01:00:00Z</time>
      </trkpt>
      <trkpt lat="61.029317" lon="13.339532">
        <ele>354.364</ele>
        <time>1970-01-01T01:00:00Z</time>
      </trkpt>
      <trkpt lat="61.02941" lon="13.339541">
        <ele>354.273</ele>
        <time>1970-01-01T01:00:00Z</time>
      </trkpt>
      <trkpt lat="61.029505" lon="13.339551">
        <ele>354.182</ele>
        <time>1970-01-01T01:00:00Z</time>
      </trkpt>
      <trkpt lat="61.029589" lon="13.339518">
        <ele>354.091</ele>
        <time>1970-01-01T01:00:00Z</time>
      </trkpt>
      <trkpt lat="61.029683" lon="13.339519">
        <ele>354</ele>
        <time>1970-01-01T01:00:00Z</time>
      </trkpt>
      <trkpt lat="61.029767" lon="13.33949">
        <ele>354</ele>
        <time>1970-01-01T01:00:00Z</time>
      </trkpt>
      <trkpt lat="61.030009" lon="13.339474">
        <ele>354</ele>
        <time>1970-01-01T01:00:00Z</time>
      </trkpt>
      <trkpt lat="61.030094" lon="13.339455">
        <ele>354</ele>
        <time>1970-01-01T01:00:00Z</time>
      </trkpt>
      <trkpt lat="61.030176" lon="13.339461">
        <ele>354</ele>
        <time>1970-01-01T01:00:00Z</time>
      </trkpt>
      <trkpt lat="61.030259" lon="13.339486">
        <ele>354</ele>
        <time>1970-01-01T01:00:00Z</time>
      </trkpt>
      <trkpt lat="61.030341" lon="13.339503">
        <ele>354</ele>
        <time>1970-01-01T01:00:00Z</time>
      </trkpt>
      <trkpt lat="61.030432" lon="13.33952">
        <ele>354.091</ele>
        <time>1970-01-01T01:00:00Z</time>
      </trkpt>
      <trkpt lat="61.030521" lon="13.339524">
        <ele>354.182</ele>
        <time>1970-01-01T01:00:00Z</time>
      </trkpt>
      <trkpt lat="61.030602" lon="13.339546">
        <ele>354.273</ele>
        <time>1970-01-01T01:00:00Z</time>
      </trkpt>
      <trkpt lat="61.030696" lon="13.339538">
        <ele>354.364</ele>
        <time>1970-01-01T01:00:00Z</time>
      </trkpt>
      <trkpt lat="61.030778" lon="13.339564">
        <ele>354.455</ele>
        <time>1970-01-01T01:00:00Z</time>
      </trkpt>
      <trkpt lat="61.030867" lon="13.339591">
        <ele>354.5</ele>
        <time>1970-01-01T01:00:00Z</time>
      </trkpt>
      <trkpt lat="61.03093" lon="13.339742">
        <ele>354.556</ele>
        <time>1970-01-01T01:00:00Z</time>
      </trkpt>
      <trkpt lat="61.031024" lon="13.33979">
        <ele>354.625</ele>
        <time>1970-01-01T01:00:00Z</time>
      </trkpt>
      <trkpt lat="61.031119" lon="13.339785">
        <ele>354.833</ele>
        <time>1970-01-01T01:00:00Z</time>
      </trkpt>
    </trkseg>
  </trk>
</gpx>